Location: Napier
(39.4830°S, 176.9170°E)
Time: 03:18:30
(UTC+12:00)

Cosmos 1741 Rocket - Pass Details

Date: 15 August 2020
Orbit: 760 x 783 km, 74.0° (Epoch: 19 September)

Event Time Altitude Azimuth Distance (km) Brightness Sun altitude
Rises 19:06:41 0° 198° (SSW) 3,263 7.5 -18.3°
Reaches altitude 10° 19:09:06 10° 196° (SSW) 2,328 6.7 -18.8°
Maximum altitude 19:14:23 79° 110° (ESE) 788 3.9 -19.8°
Drops below altitude 10° 19:19:37 10° 22° (NNE) 2,296 6.3 -20.8°
Enters shadow 19:20:30 - 21° (NNE) 2,640 6.6 -21.0°
